Weather History for KGBG - October, 2011

Change the Weather History Date:

Tuesday, October 18, 2011

  Actual Average Record
Temperature  
Mean Temperature 48 °F -  
Max Temperature 55 °F 59 °F 86 °F (1950)
Min Temperature 41 °F 39 °F 6 °F (2001)
Degree Days  
Heating Degree Days 17    
Moisture  
Dew Point 34 °F    
Average Humidity 63    
Maximum Humidity 81    
Minimum Humidity 41    
Precipitation  
Precipitation 0.00 in - - ()
Sea Level Pressure  
Sea Level Pressure 29.86 in    
Wind  
Wind Speed 7 mph (WNW)    
Max Wind Speed 16 mph    
Max Gust Speed 23 mph    
Visibility 10 miles    
Events      
Averages and records for this station are not official NWS values.
T = Trace of Precipitation, MM = Missing Value Source: NWS Daily Summary

Daily Weather History Graph

Daily Weather History Graph

Search for Another Location

Airport or City:

Trip Planner

Search our weather history database for the weather conditions in past years. The results will help you decide how hot, cold, wet, or windy it might be!

Date:

Astronomy

Oct. 18, 2011 Rise Set
Actual Time 7:16 AM CDT 6:17 PM CDT
Civil Twilight 6:48 AM CDT 6:44 PM CDT
Nautical Twilight 6:16 AM CDT 7:16 PM CDT
Astronomical Twilight 5:44 AM CDT 7:48 PM CDT
Moon 10:56 PM CDT (10/18) 1:08 PM CDT (10/18)
Length of Visible Light 11h 56m
Length of Day
11h 00m
Waning Gibbous, 64% of the Moon is Illuminated
Oct 18
Waning Gibbous
Oct 19
Last Quarter
Oct 26
New
Nov 2
First Quarter
Nov 10
Full

Hourly Weather History & Observations

Time (CDT) Temp. Windchill Dew Point Humidity Pressure Visibility Wind Dir Wind Speed Gust Speed Precip Events Conditions
12:15 AM 44.6 °F 41.4 °F 37.4 °F 76% 29.89 in 10.0 mi WSW 5.8 mph - N/A   Clear
12:35 AM 44.6 °F 40.7 °F 37.4 °F 76% 29.89 in 10.0 mi SW 6.9 mph - N/A   Clear
12:55 AM 44.6 °F 42.2 °F 37.4 °F 76% 29.89 in 10.0 mi SW 4.6 mph - N/A   Clear
1:15 AM 44.6 °F 43.1 °F 35.6 °F 71% 29.88 in 10.0 mi WSW 3.5 mph - N/A   Clear
1:35 AM 42.8 °F 40.1 °F 35.6 °F 76% 29.87 in 10.0 mi WSW 4.6 mph - N/A   Clear
1:55 AM 42.8 °F 40.1 °F 35.6 °F 76% 29.87 in 10.0 mi West 4.6 mph - N/A   Clear
2:15 AM 41.0 °F 38.0 °F 35.6 °F 81% 29.86 in 10.0 mi West 4.6 mph - N/A   Clear
2:35 AM 41.0 °F 38.0 °F 35.6 °F 81% 29.86 in 10.0 mi West 4.6 mph - N/A   Clear
2:55 AM 41.0 °F 37.1 °F 35.6 °F 81% 29.86 in 10.0 mi West 5.8 mph - N/A   Clear
3:15 AM 41.0 °F 37.1 °F 35.6 °F 81% 29.86 in 10.0 mi West 5.8 mph - N/A   Clear
3:35 AM 41.0 °F 36.4 °F 35.6 °F 81% 29.86 in 10.0 mi West 6.9 mph - N/A   Clear
3:55 AM 41.0 °F 36.4 °F 35.6 °F 81% 29.86 in 10.0 mi West 6.9 mph - N/A   Clear
4:15 AM 42.8 °F 39.3 °F 37.4 °F 81% 29.85 in 10.0 mi West 5.8 mph - N/A   Clear
4:35 AM 42.8 °F 40.1 °F 35.6 °F 76% 29.85 in 10.0 mi West 4.6 mph - N/A   Clear
4:55 AM 42.8 °F 41.1 °F 35.6 °F 76% 29.85 in 10.0 mi West 3.5 mph - N/A   Clear
5:15 AM 41.0 °F 39.0 °F 35.6 °F 81% 29.85 in 10.0 mi WSW 3.5 mph - N/A   Clear
5:35 AM 41.0 °F 38.0 °F 35.6 °F 81% 29.86 in 10.0 mi West 4.6 mph - N/A   Clear
5:55 AM 41.0 °F 39.0 °F 35.6 °F 81% 29.85 in 10.0 mi West 3.5 mph - N/A   Clear
6:15 AM 41.0 °F 37.1 °F 35.6 °F 81% 29.85 in 10.0 mi West 5.8 mph - N/A   Clear
6:35 AM 41.0 °F 37.1 °F 35.6 °F 81% 29.85 in 10.0 mi West 5.8 mph - N/A   Clear
6:55 AM 41.0 °F 38.0 °F 35.6 °F 81% 29.85 in 10.0 mi West 4.6 mph - N/A   Clear
7:15 AM 42.8 °F 40.1 °F 35.6 °F 76% 29.85 in 10.0 mi West 4.6 mph - N/A   Clear
7:35 AM 42.8 °F 41.1 °F 35.6 °F 76% 29.85 in 10.0 mi West 3.5 mph - N/A   Clear
7:55 AM 42.8 °F 41.1 °F 35.6 °F 76% 29.86 in 10.0 mi West 3.5 mph - N/A   Clear
8:15 AM 42.8 °F - 37.4 °F 81% 29.86 in 10.0 mi Calm Calm - N/A   Clear
8:35 AM 42.8 °F 41.1 °F 37.4 °F 81% 29.87 in 10.0 mi West 3.5 mph - N/A   Clear
8:55 AM 44.6 °F 41.4 °F 35.6 °F 71% 29.87 in 10.0 mi West 5.8 mph - N/A   Scattered Clouds
9:15 AM 44.6 °F 41.4 °F 35.6 °F 71% 29.87 in 10.0 mi WNW 5.8 mph - N/A   Scattered Clouds
9:35 AM 44.6 °F 41.4 °F 35.6 °F 71% 29.87 in 10.0 mi WNW 5.8 mph - N/A   Clear
9:55 AM 46.4 °F 42.9 °F 35.6 °F 66% 29.87 in 10.0 mi NW 6.9 mph - N/A   Scattered Clouds
10:15 AM 46.4 °F 42.9 °F 35.6 °F 66% 29.86 in 10.0 mi NW 6.9 mph - N/A   Clear
10:35 AM 46.4 °F 42.4 °F 35.6 °F 66% 29.86 in 10.0 mi NW 8.1 mph - N/A   Clear
10:55 AM 48.2 °F - 33.8 °F 58% 29.86 in 10.0 mi NW 9.2 mph - N/A   Clear
11:15 AM 50.0 °F - 33.8 °F 54% 29.87 in 10.0 mi NW 9.2 mph - N/A   Clear
11:35 AM 50.0 °F - 32.0 °F 50% 29.86 in 10.0 mi NW 9.2 mph - N/A   Clear
11:55 AM 51.8 °F - 32.0 °F 47% 29.86 in 10.0 mi NW 8.1 mph - N/A   Clear
12:15 PM 51.8 °F - 32.0 °F 47% 29.86 in 10.0 mi NW 6.9 mph - N/A   Clear
12:35 PM 53.6 °F - 32.0 °F 44% 29.86 in 10.0 mi NNW 9.2 mph - N/A   Clear
12:55 PM 53.6 °F - 32.0 °F 44% 29.85 in 10.0 mi WNW 9.2 mph - N/A   Clear
1:15 PM 53.6 °F - 32.0 °F 44% 29.85 in 10.0 mi NW 10.4 mph 16.1 mph N/A   Clear
1:35 PM 53.6 °F - 32.0 °F 44% 29.84 in 10.0 mi NW 10.4 mph - N/A   Clear
1:55 PM 53.6 °F - 32.0 °F 44% 29.84 in 10.0 mi WNW 10.4 mph - N/A   Clear
2:15 PM 55.4 °F - 32.0 °F 41% 29.84 in 10.0 mi NW 10.4 mph - N/A   Clear
2:35 PM 55.4 °F - 32.0 °F 41% 29.84 in 10.0 mi NW 10.4 mph 17.3 mph N/A   Clear
2:55 PM 53.6 °F - 32.0 °F 44% 29.84 in 10.0 mi NW 11.5 mph - N/A   Clear
3:15 PM 53.6 °F - 32.0 °F 44% 29.84 in 10.0 mi NW 11.5 mph - N/A   Clear
3:35 PM 53.6 °F - 32.0 °F 44% 29.85 in 10.0 mi NW 12.7 mph 16.1 mph N/A   Clear
3:55 PM 53.6 °F - 32.0 °F 44% 29.85 in 10.0 mi NNW 15.0 mph - N/A   Clear
4:15 PM 53.6 °F - 32.0 °F 44% 29.85 in 10.0 mi NW 9.2 mph - N/A   Scattered Clouds
4:35 PM 53.6 °F - 32.0 °F 44% 29.85 in 10.0 mi NW 11.5 mph - N/A   Mostly Cloudy
4:55 PM 51.8 °F - 32.0 °F 47% 29.85 in 10.0 mi NW 15.0 mph 23.0 mph N/A   Overcast
5:15 PM 51.8 °F - 32.0 °F 47% 29.86 in 10.0 mi NW 12.7 mph 18.4 mph N/A   Overcast
5:35 PM 51.8 °F - 32.0 °F 47% 29.86 in 10.0 mi NW 15.0 mph - N/A   Overcast
5:55 PM 51.8 °F - 32.0 °F 47% 29.87 in 10.0 mi NW 15.0 mph - N/A   Overcast
6:15 PM 50.0 °F - 32.0 °F 50% 29.87 in 10.0 mi NW 13.8 mph - N/A   Overcast
6:35 PM 50.0 °F - 32.0 °F 50% 29.88 in 10.0 mi NW 12.7 mph - N/A   Overcast
6:55 PM 50.0 °F - 33.8 °F 54% 29.88 in 10.0 mi NW 13.8 mph - N/A   Overcast
7:15 PM 50.0 °F - 33.8 °F 54% 29.89 in 10.0 mi NW 16.1 mph - N/A   Overcast
7:35 PM 50.0 °F - 33.8 °F 54% 29.89 in 10.0 mi NW 13.8 mph 20.7 mph N/A   Overcast
7:55 PM 48.2 °F - 33.8 °F 58% 29.89 in 10.0 mi NW 13.8 mph 17.3 mph N/A   Overcast
8:15 PM 48.2 °F - 33.8 °F 58% 29.89 in 10.0 mi NW 13.8 mph - N/A   Overcast
8:35 PM 48.2 °F - 33.8 °F 58% 29.89 in 10.0 mi NW 11.5 mph 20.7 mph N/A   Overcast
8:55 PM 46.4 °F 39.8 °F 33.8 °F 62% 29.88 in 10.0 mi NW 16.1 mph 19.6 mph N/A   Overcast
9:15 PM 46.4 °F 40.7 °F 33.8 °F 62% 29.89 in 10.0 mi NW 12.7 mph - N/A   Overcast
9:35 PM 46.4 °F 40.7 °F 33.8 °F 62% 29.88 in 10.0 mi NW 12.7 mph - N/A   Overcast
9:55 PM 46.4 °F 40.7 °F 33.8 °F 62% 29.89 in 10.0 mi NW 12.7 mph 18.4 mph N/A   Overcast
10:15 PM 46.4 °F 41.1 °F 33.8 °F 62% 29.89 in 10.0 mi NW 11.5 mph - N/A   Overcast
10:35 PM 46.4 °F 41.1 °F 33.8 °F 62% 29.88 in 10.0 mi NW 11.5 mph - N/A   Overcast
10:55 PM 46.4 °F 41.1 °F 33.8 °F 62% 29.88 in 10.0 mi NNW 11.5 mph - N/A   Overcast
11:15 PM 46.4 °F 41.5 °F 33.8 °F 62% 29.88 in 10.0 mi NW 10.4 mph - N/A   Overcast
11:35 PM 46.4 °F 41.9 °F 33.8 °F 62% 29.87 in 10.0 mi NW 9.2 mph - N/A   Overcast
11:55 PM 46.4 °F 41.9 °F 35.6 °F 66% 29.86 in 10.0 mi NW 9.2 mph - N/A   Overcast